528  
ASUS41 KPHI 150212  
RWRPHI  
 
REGIONAL WEATHER ROUNDUP  
NATIONAL WEATHER SERVICE MOUNT HOLLY NJ  
1000 PM EDT FRI AUG 14 2020  
 
NOTE: "FAIR" INDICATES FEW OR NO CLOUDS BELOW 12,000 FEET WITH NO  
SIGNIFICANT WEATHER AND/OR S TO VISIBILITY
.  
 
* = STATION DOES NOT REPORT PRECIPITATION (E.G. RAIN, SNOW, ETC.)  
OR FOG.
 
 
NJZ015>026-150300-  
SOUTHERN NEW JERSEY  
 
CITY SKY/WX TMP DP RH WIND PRES REMARKS
 
POMONA PTCLDY 70 63 78 N5 29.96S  
WILDWOOD* MOCLDY 75 66 73 NE7 29.96S  
MILLVILLE PTCLDY 74 61 63 NE6 29.97R  
WRIGHTSTOWN PTCLDY 72 61 67 NE5 29.98S  
MOUNT HOLLY MOCLDY 70 65 84 CALM 29.98R  
TRENTON PTCLDY 73 62 68 N5 29.99R  
 

 
NJZ001>014-150300-  
NORTHERN NEW JERSEY  
 
CITY SKY/WX TMP DP RH WIND PRES REMARKS
 
SUSSEX PTCLDY 70 67 90 CALM 30.01R  
ANDOVER* N/A 70 67 90 CALM 30.02R  
NEWARK MOCLDY 80 61 52 CALM 29.98R  
TETERBORO CLOUDY 79 61 53 NE3 29.97R  
CALDWELL CLOUDY 77 64 64 CALM 30.00R  
SOMERVILLE PTCLDY 70 66 87 CALM 29.98R  
ALLAIRE* PTCLDY 75 66 73 NE5 29.99S  
TOMS RIVER* PTCLDY 69 64 84 CALM 29.98S  
 

 
PAZ043-044-047-054-055-060>062-066>071-150300-  
EASTERN PENNSYLVANIA  
 
CITY SKY/WX TMP DP RH WIND PRES REMARKS
 
PHILADELPHIA MOCLDY 76 61 59 NE5 29.98S  
NORTH PHILA MOCLDY 74 62 66 CALM 30.00R  
BLUE BELL* MOCLDY 68 67 96 CALM 30.00S  
DOYLESTOWN PTCLDY 74 65 73 NE3 30.00R  
QUAKERTOWN* CLEAR 72 68 88 CALM 30.02R  
PERKASIE* N/A 68 68 100 CALM 30.03R  
POTTSTOWN MOCLDY 71 65 81 NE3 30.02R  
LANCASTER MOCLDY 76 66 71 CALM 30.00R  
COATESVILLE MOCLDY 73 64 73 CALM 30.02S  
WEST CHESTER FAIR 75 63 64 CALM 30.01R  
READING MOCLDY 77 68 73 CALM 29.98R  
ALLENTOWN PTCLDY 73 64 73 NE3 30.00R  
QN CITY/ALNTWN FAIR 75 64 69 E3 30.02R  
MOUNT POCONO CLEAR 66 60 81 N5 30.08R  
HAZLETON PTCLDY 64 63 94 CALM 30.09S  
LEHIGHTON FAIR 66 66 100 CALM 30.02S  
WILKES BARRE PTCLDY 73 62 68 E3 30.03R  
 

 
DEZALL-MDZ008-012-015-019-020-150300-  
DELAWARE AND EASTERN MARYLAND  
 
CITY SKY/WX TMP DP RH WIND PRES REMARKS
 
WILMINGTON MOCLDY 77 60 55 E5 29.99R  
DOVER MOCLDY 74 62 64 NE8 29.97R  
CHESWOLD CLEAR 70 68 94 CALM 29.98S  
GEORGETOWN PTCLDY 74 69 85 CALM 29.97R  
EASTON MOCLDY 73 73 100 CALM 30.01R  
STEVENSVILLE CLOUDY N/A N/A N/A CALM 29.98S  
ABERDEEN MOCLDY 71 70 94 CALM 29.98R  
PATUXENT MOCLDY 77 71 82 E9 29.96S  
OCEAN CITY PTCLDY 76 71 85 NE9 29.95S  
WALLOPS ISLAND N/A 76 73 91 N7 29.94S  
CAMBRIDGE CLOUDY 75 73 94 CALM 29.96S  
SALISBURY PTCLDY 74 70 87 N5 29.95S  
 

 
PAZ001-021-NYZ056-072-MDZ011-DCZ001-150300-  
OTHER NEARBY LOCATIONS  
 
CITY SKY/WX TMP DP RH WIND PRES REMARKS
 
HARRISBURG MOCLDY 79 66 64 SE5 29.99R  
STATE COLLEGE CLEAR 75 59 57 CALM 30.03S  
WILLIAMSPORT CLEAR 73 63 70 CALM 30.00R  
BINGHAMTON PTCLDY 71 61 70 NE5 30.07R  
NEW YORK CITY PTCLDY 78 64 61 NE7 30.01S  
BALTIMORE CLOUDY 74 71 91 NW3 29.98S  
WASHINGTON DC CLOUDY 78 70 76 NE6 29.99S  
 

 
 
 
CLICK HERE TO GO TO PREVIOUS BULLETINS.

The Nexlab PA Page
The Nexlab NJ Page
The Nexlab DE Page
The Nexlab MD Page Main Text Page